Location: Unspecified
(0.0000°N, 0.0000°E)
Time: 17:57:00
(UTC+00:00)

Courier 1B Rocket - Pass Details

Date: 04 October 2020
Orbit: 921 x 1202 km, 28.2° (Epoch: 27 October)

Event Time Altitude Azimuth Distance (km) Brightness Sun altitude
Rises 21:02:50 0° 215° (SW) 4,090 8.6 -48.4°
Enters shadow 21:05:53 - 202° (SSW) 3,345 8.0 -49.1°
Reaches altitude 10° 21:06:55 10° 196° (SSW) 3,133 - -49.4°
Maximum altitude 21:11:44 17° 158° (SSE) 2,612 - -50.6°
Drops below altitude 10° 21:16:30 10° 119° (ESE) 3,094 - -51.8°
Sets 21:20:28 0° 100° (E) 4,018 - -52.7°
